Location: Newark
(25.0000°N, 73.5000°E)
Time: 00:49:03
(UTC+00:00)

Tiros 1 - All Passes

Search period start: 31 July 2021 00:00
Search period end: 10 August 2021 00:00
Orbit: 630 x 664 km, 48.4° (Epoch: 30 July)

Date Brightness Start Highest point End Pass type
(mag) Time Alt. Az. Time Alt. Az. Time Alt. Az.
31 Jul - 11:00:05 10° S 11:04:11 28° SE 11:08:14 10° ENE daylight
31 Jul - 12:41:51 10° WSW 12:46:14 35° NW 12:50:36 10° NNE daylight
31 Jul - 19:37:56 10° NNW 19:42:05 31° NE 19:46:10 10° E night (unlit)
31 Jul - 21:20:07 10° WNW 21:24:10 30° SW 21:28:12 10° S night (unlit)
01 Aug - 11:25:09 10° SW 11:29:57 80° SE 11:34:44 10° NE daylight
01 Aug - 13:09:35 10° WNW 13:12:32 16° NNW 13:15:30 10° N daylight
01 Aug - 18:23:11 10° N 18:25:25 13° NNE 18:27:38 10° ENE visible
01 Aug - 20:03:28 10° NW 20:08:08 82° NE 20:12:45 10° SE night (unlit)
02 Aug - 10:10:01 10° S 10:13:55 25° SE 10:17:50 10° ENE daylight
02 Aug - 11:51:28 10° WSW 11:55:56 38° NW 12:00:25 10° NNE daylight
02 Aug - 18:47:45 10° NNW 18:51:48 28° NE 18:55:47 10° E visible
02 Aug - 20:29:45 10° WNW 20:33:56 34° SW 20:38:06 10° SSE night (unlit)
03 Aug - 10:34:55 10° SW 10:39:41 72° SE 10:44:28 10° NE daylight
03 Aug - 12:19:00 10° WNW 12:22:13 17° NNW 12:25:25 10° N daylight
03 Aug - 17:33:11 10° N 17:35:05 12° NNE 17:36:59 10° NE visible
03 Aug - 19:13:13 10° NW 19:17:53 73° NE 19:22:30 10° SE night (unlit)
03 Aug - 20:58:04 10° WSW 20:59:35 11° SW 21:01:07 10° SW night (unlit)
04 Aug - 09:19:58 10° S 09:23:41 22° SE 09:27:23 10° ENE daylight
04 Aug - 11:01:06 10° WSW 11:05:40 42° NW 11:10:13 10° NNE daylight
04 Aug - 17:57:35 10° NNW 18:01:30 26° NE 18:05:23 10° E visible
04 Aug - 19:39:23 10° WNW 19:43:43 38° SW 19:48:00 10° SSE night (unlit)
05 Aug - 09:44:41 10° SSW 09:49:25 64° SE 09:54:10 10° NE daylight
05 Aug - 11:28:29 10° W 11:31:53 19° NW 11:35:18 10° NNE daylight
05 Aug - 16:43:14 10° N 16:44:45 11° NNE 16:46:16 10° NE visible
05 Aug - 18:22:57 10° NW 18:27:37 65° NE 18:32:13 10° SE visible
05 Aug - 20:07:12 10° W 20:09:22 13° SW 20:11:32 10° SSW night (unlit)
06 Aug - 08:29:58 10° S 08:33:26 20° SE 08:36:55 10° E daylight
06 Aug - 10:10:44 10° WSW 10:15:22 47° NW 10:20:00 10° NNE daylight
06 Aug - 17:07:24 10° NNW 17:11:12 24° NE 17:14:59 10° E visible
06 Aug - 18:49:03 10° WNW 18:53:29 43° SW 18:57:51 10° SSE night (unlit)
07 Aug - 08:54:28 10° SSW 08:59:10 57° SE 09:03:52 10° NE daylight
07 Aug - 10:37:59 10° W 10:41:34 21° NW 10:45:10 10° NNE daylight
07 Aug - 15:53:27 10° NNE 15:54:25 11° NNE 15:55:23 10° NE visible
07 Aug - 17:32:43 10° NW 17:37:21 58° NE 17:41:56 10° ESE visible
07 Aug - 19:16:31 10° W 19:19:09 15° SW 19:21:46 10° SSW night (unlit)
08 Aug - 07:40:00 10° S 07:43:12 18° SE 07:46:24 10° E daylight
08 Aug - 09:20:24 10° WSW 09:25:04 52° NW 09:29:46 10° NE daylight
08 Aug - 16:17:14 10° NNW 16:20:54 22° NE 16:24:32 10° E visible
08 Aug - 17:58:42 10° WNW 18:03:14 49° SW 18:07:42 10° SSE visible
09 Aug - 08:04:17 10° SSW 08:08:54 50° SE 08:13:33 10° ENE daylight
09 Aug - 09:47:29 10° W 09:51:15 22° NW 09:55:01 10° NNE daylight
09 Aug - 16:42:28 10° NW 16:47:05 52° NE 16:51:38 10° ESE visible
09 Aug - 18:25:55 10° W 18:28:55 17° SW 18:31:54 10° SSW night (unlit)
